RH
51 54 61 63 62 63 63 61 61 60 58 58 57 56 55 54 57 60 58 53 48 48 49 46 42 43 45 47 49 48 50 54 58 59 60 63 65 64 66 65 61 56 48 44 44 43 42 41 45 49 48 49 54 56 59 64 68 66 60 52 46 44 42 41 42 40 37 40 40 37 34 30 28 25 24 25 26 28 30 29 28 28 30 32 35
50 53 58 61 60 60 61 60 61 61 58 57 57 56 53 50 54 58 57 50 44 44 46 45 43 43 44 46 47 49 51 51 55 60 62 65 69 68 68 63 58 55 49 43 41 41 42 41 43 49 51 52 54 53 56 61 63 63 57 50 45 46 47 48 55 52 38 37 40 38 37 35 31 24 21 21 22 23 23 22 22 23 25 28 31
52 54 57 58 57 57 59 59 59 59 59 57 57 56 53 51 53 56 55 50 45 45 46 48 48 46 46 46 47 51 56 57 58 62 62 65 68 68 67 62 55 50 46 40 36 41 46 44 43 47 51 51 51 50 51 53 57 59 55 49 43 41 43 48 57 58 47 40 40 40 41 42 41 34 25 20 19 20 19 17 17 18 21 25 26
55 56 56 56 56 57 59 58 57 57 58 56 56 57 53 51 53 51 51 51 48 46 46 50 53 54 53 54 54 55 60 64 64 64 63 65 67 66 65 62 56 51 46 39 36 41 47 47 45 45 50 50 48 49 48 45 47 50 52 53 48 40 41 48 53 56 56 50 44 40 37 38 42 41 34 27 19 16 16 15 16 15 17 22 23
55 56 55 55 56 59 60 58 58 58 58 57 57 56 52 51 51 49 49 51 50 48 49 53 55 56 56 56 58 59 60 61 59 60 62 63 63 64 64 61 58 55 50 44 40 42 45 48 47 45 51 54 50 48 46 42 38 41 46 51 52 48 42 45 48 50 53 53 49 46 41 39 37 28 28 33 25 16 15 16 18 16 14 16 18
52 52 53 54 55 59 61 60 60 59 58 58 57 56 52 50 50 50 49 50 52 51 52 53 52 54 54 52 54 55 55 56 56 57 58 59 61 64 64 62 59 56 53 48 44 44 45 47 47 45 49 53 52 49 45 38 32 35 43 43 46 51 44 38 40 43 44 42 41 42 40 39 35 27 26 31 29 21 16 14 15 16 15 15 14
49 49 50 52 54 58 61 61 61 59 57 57 57 57 53 50 50 50 50 50 53 54 54 52 50 52 51 48 49 49 51 57 61 61 59 61 65 67 67 65 61 58 56 52 48 48 48 47 47 45 44 47 49 49 46 39 31 34 44 45 45 52 50 41 40 40 38 35 33 32 29 26 27 30 28 27 28 27 22 16 13 16 19 18 15
48 48 49 51 54 57 59 61 61 59 57 57 59 58 53 51 50 49 49 50 53 54 52 51 49 50 49 47 48 48 50 58 65 66 65 67 68 68 67 66 64 61 60 57 51 49 50 48 47 46 43 41 41 44 45 43 39 39 44 47 47 51 54 49 45 41 37 37 35 30 24 19 19 23 23 22 22 24 25 20 15 18 23 23 19
45 46 49 51 53 56 57 59 61 61 59 58 60 59 55 52 51 50 50 51 54 54 49 48 49 48 48 48 49 49 53 58 61 64 68 70 73 72 69 68 67 64 62 60 53 50 51 49 45 44 42 38 35 37 42 45 47 47 47 49 48 49 54 52 48 43 40 41 40 35 30 23 19 19 20 19 17 18 19 15 15 18 25 30 24
42 42 46 51 53 55 57 58 60 62 61 60 61 60 56 54 52 51 52 52 55 55 49 48 50 49 48 49 50 51 54 57 60 65 70 70 72 74 72 70 67 65 64 62 57 53 53 49 42 40 42 40 38 39 43 45 47 48 49 51 51 48 50 52 50 47 44 42 39 37 34 30 26 23 23 22 17 18 17 12 12 12 16 25 23
39 40 43 49 53 54 56 57 59 63 63 62 62 59 56 56 54 52 52 52 55 56 51 49 50 49 48 49 51 51 53 57 60 64 68 68 69 71 72 71 67 66 67 65 62 57 54 52 45 42 44 46 45 45 44 45 47 49 49 49 50 51 51 52 52 50 47 43 40 36 32 32 31 26 26 28 24 24 25 17 12 11 12 15 16
38 38 40 46 52 54 55 57 59 64 65 64 62 58 55 55 54 52 52 53 55 55 54 52 51 49 48 49 50 51 53 54 56 59 60 60 64 68 70 71 69 68 69 68 66 61 56 54 50 46 48 49 47 45 44 45 48 50 50 48 48 49 50 51 52 51 47 44 43 40 34 31 31 28 28 31 32 34 32 22 13 13 16 11 10
36 37 38 43 50 54 56 58 60 64 66 65 61 58 56 53 52 53 53 55 55 55 55 54 51 49 49 50 49 51 53 51 51 53 55 56 60 66 68 69 69 68 69 69 66 62 57 56 55 52 52 51 48 46 45 47 50 50 49 49 45 44 46 48 49 51 51 48 46 42 36 33 31 32 34 34 35 36 30 24 20 18 18 15 11
34 36 37 41 49 54 57 60 61 63 66 65 61 59 57 53 53 53 53 55 55 55 55 53 53 51 51 52 50 50 52 52 50 48 51 55 58 62 64 65 68 68 68 67 62 60 58 57 58 56 54 53 51 50 48 49 50 47 46 49 49 48 49 49 51 54 55 54 52 47 42 43 41 38 37 31 29 31 29 28 28 23 21 18 13
32 34 37 41 49 54 55 59 60 61 65 65 62 61 58 53 53 53 52 54 55 54 53 51 52 53 52 52 52 50 49 50 52 50 51 54 56 59 62 64 67 67 67 65 61 61 59 57 59 57 55 54 53 53 52 52 51 47 48 54 54 54 54 53 53 54 54 54 56 53 48 49 48 40 35 32 30 31 31 32 31 26 23 21 17
32 34 38 42 49 53 55 59 59 59 63 64 62 61 58 54 53 53 52 53 54 54 53 52 52 53 53 52 53 52 50 50 53 55 56 56 56 58 61 64 68 68 67 65 62 62 60 58 57 56 56 55 53 52 50 51 54 51 52 56 54 54 54 53 53 53 55 58 59 57 51 49 50 43 38 37 36 34 32 33 31 28 27 25 22
34 34 37 42 48 53 55 58 58 57 59 61 61 60 59 56 52 52 53 54 54 54 53 53 52 53 54 54 53 53 53 53 54 55 57 58 58 59 62 66 70 71 69 66 63 62 62 59 55 53 56 54 51 50 47 49 55 54 53 54 52 53 53 52 54 54 56 59 58 57 53 50 52 50 45 44 43 41 37 35 31 29 30 28 25
34 34 36 40 47 52 53 55 57 56 56 57 59 59 59 57 50 50 54 54 54 53 53 53 52 53 54 53 54 54 53 53 52 53 56 58 59 61 63 67 72 74 70 64 62 64 63 60 57 55 55 52 50 48 46 48 54 54 53 52 52 55 55 54 54 53 56 58 56 55 54 51 53 54 51 48 47 45 40 36 34 32 32 31 29
36 34 36 39 45 50 53 54 54 55 55 54 58 58 57 55 49 48 53 54 53 52 52 53 52 53 53 52 55 56 53 52 50 52 56 57 57 60 64 69 74 74 68 62 62 64 64 61 59 57 54 51 49 47 47 49 51 52 52 51 52 56 56 54 53 53 56 57 55 55 54 53 56 56 51 48 46 43 38 34 33 35 37 38 37
37 35 36 39 44 48 52 54 51 52 53 51 55 57 54 53 49 48 53 54 53 52 53 55 54 52 52 52 55 54 51 50 49 51 55 54 53 56 62 70 74 71 65 62 62 63 64 62 59 57 53 51 48 46 46 48 50 51 51 51 51 53 52 52 53 52 52 53 52 53 52 51 52 51 49 48 46 43 42 41 37 37 39 40 39
38 36 35 39 44 47 50 53 49 48 50 50 53 55 53 51 48 48 53 55 54 54 55 57 55 53 52 52 53 52 50 49 49 51 54 53 55 57 61 69 73 68 63 63 63 63 64 62 58 55 53 51 49 47 46 47 49 50 51 50 49 48 47 48 51 52 50 50 49 47 48 49 48 46 45 44 42 40 41 42 39 34 32 32 33
41 37 36 38 44 46 47 50 48 47 48 48 50 52 50 49 48 49 54 54 53 54 55 55 55 54 53 52 52 52 51 50 50 53 55 55 58 62 64 69 72 68 64 64 63 64 64 61 57 55 53 51 49 48 46 46 47 48 49 49 47 45 44 45 50 52 48 49 50 46 46 49 48 45 41 38 37 38 37 36 36 32 29 28 29
41 38 37 38 43 46 46 47 47 46 48 48 49 50 48 47 48 49 53 53 51 53 54 53 54 54 53 53 52 51 50 50 52 56 58 57 58 62 65 68 71 70 66 64 63 64 63 61 58 56 55 52 49 49 48 45 45 46 47 47 46 45 46 47 48 47 44 46 51 49 48 51 51 49 48 45 44 46 43 39 38 35 32 32 30
42 40 40 40 44 46 44 46 46 45 47 49 50 50 48 47 48 48 51 52 50 51 51 51 52 52 52 52 51 51 50 51 54 56 59 59 59 62 65 65 68 71 68 64 63 63 63 62 60 58 57 54 51 50 49 45 44 44 44 45 46 46 47 47 45 42 40 41 46 47 48 51 52 50 50 49 50 52 51 47 45 41 35 33 33
44 44 45 44 45 45 43 44 44 43 46 49 50 50 47 47 48 48 50 50 49 50 49 48 50 51 52 52 52 53 52 53 55 55 58 61 60 62 66 64 65 70 69 65 64 63 62 62 61 59 57 55 53 52 49 46 44 44 42 43 44 43 44 45 44 42 39 39 43 46 46 49 51 50 48 47 48 52 51 49 51 47 38 34 36
47 47 49 49 46 43 42 43 43 42 45 48 50 50 47 47 49 48 49 50 49 50 49 48 48 49 51 53 53 54 54 55 56 57 58 61 61 63 66 64 63 68 70 67 65 63 61 60 60 59 57 55 54 52 49 46 44 44 44 43 44 45 43 42 42 42 40 40 43 44 44 47 49 48 47 46 48 54 55 54 57 55 45 39 41
47 48 51 51 48 44 42 43 44 42 44 47 49 49 46 47 50 48 47 49 50 51 51 49 48 48 49 51 52 54 55 56 57 58 59 61 62 63 65 63 61 67 70 68 65 64 62 60 58 58 58 56 54 53 51 47 45 45 45 44 46 48 45 42 41 39 39 40 41 42 43 45 47 46 46 46 50 55 59 60 62 61 53 47 46
45 48 51 51 50 47 44 45 45 44 45 47 48 48 46 46 49 48 47 49 51 51 52 50 49 50 49 50 51 52 53 56 57 58 60 61 62 64 66 65 64 67 70 67 65 64 64 62 59 58 59 58 56 54 52 50 47 46 47 46 46 48 46 44 43 40 39 40 41 41 42 43 44 46 47 49 54 57 58 60 62 61 56 51 49
44 46 50 50 49 48 46 47 47 46 47 47 46 46 45 46 48 48 46 48 51 52 52 50 49 51 51 50 50 51 52 55 56 57 59 61 63 65 68 69 69 70 70 68 66 64 63 63 61 59 59 59 58 56 54 52 50 48 49 47 46 47 46 44 44 43 41 41 41 40 41 42 44 48 49 46 45 49 52 56 59 60 58 53 49
42 43 46 47 47 46 48 49 48 47 47 47 46 44 44 46 47 47 46 46 50 53 52 49 48 50 51 50 50 51 53 54 56 57 58 61 64 67 70 70 71 72 72 70 69 66 64 64 62 60 60 60 62 61 59 57 53 49 50 49 46 46 45 42 43 44 43 43 42 40 40 42 44 45 41 34 32 38 44 49 54 58 57 54 50
38 41 43 44 45 45 48 49 49 49 47 46 46 43 43 45 45 45 44 43 47 52 52 49 48 48 49 49 49 50 52 53 54 56 58 60 63 67 70 71 70 72 74 74 72 69 65 65 63 61 62 62 64 65 66 65 58 48 46 51 51 47 45 42 41 42 43 43 43 42 41 44 47 47 42 36 37 41 43 45 49 53 56 57 53
34 37 40 42 43 44 48 49 49 49 47 46 46 44 42 43 44 44 44 43 44 48 49 48 47 47 47 48 48 49 51 52 53 55 57 59 61 64 69 71 70 73 75 73 72 71 69 68 67 64 64 65 66 67 68 69 65 51 42 47 54 52 47 44 42 40 39 38 40 43 43 44 47 52 52 50 52 57 57 53 49 49 54 58 57
32 34 36 39 41 42 47 50 49 47 46 45 45 43 42 42 44 44 43 43 43 45 47 46 46 46 46 47 48 49 50 52 53 53 55 57 59 62 66 68 69 73 76 73 73 74 72 72 71 68 66 67 69 69 68 70 69 58 43 41 50 54 51 45 43 41 38 36 37 40 43 45 46 50 53 50 50 58 66 67 63 59 56 54 54
34 33 33 37 40 42 46 50 49 47 48 47 44 43 43 42 44 44 43 44 44 45 45 44 43 44 45 46 48 49 49 51 51 53 54 56 59 62 65 67 69 73 77 76 73 72 74 75 75 70 66 68 71 70 68 70 71 64 49 39 43 54 55 47 43 40 39 39 38 39 41 43 45 51 56 54 50 52 60 71 75 71 63 56 53
36 35 35 38 41 44 47 50 49 47 48 47 43 44 45 43 44 44 43 44 44 44 44 43 42 42 43 45 47 47 48 49 50 51 54 56 58 61 64 67 69 72 76 75 69 68 72 71 68 67 66 70 73 70 67 70 71 67 55 39 40 54 57 49 42 39 39 41 42 42 42 41 43 47 54 58 58 56 57 63 67 67 64 60 56
35 36 39 41 43 45 48 51 51 47 46 45 43 44 45 44 44 44 44 44 45 44 44 43 43 42 41 43 44 45 47 48 49 50 52 55 58 61 64 67 69 72 76 74 68 67 68 65 65 70 72 74 74 69 67 69 70 71 60 42 41 54 56 49 41 38 39 39 40 41 42 42 43 43 47 54 55 52 51 53 56 59 60 57 53
34 36 40 43 45 46 49 53 52 48 45 44 43 44 45 44 44 44 44 45 45 45 44 44 44 44 42 42 42 44 45 47 48 49 50 52 56 59 64 69 71 73 76 74 69 68 71 72 74 75 72 73 74 70 68 69 70 75 66 46 43 52 51 46 42 39 38 37 35 36 35 37 41 40 42 50 51 46 46 47 49 54 56 55 51
33 36 39 43 47 48 49 53 53 49 47 45 44 45 45 45 45 44 44 45 45 45 45 45 46 46 45 44 43 43 44 45 47 48 49 52 56 61 66 70 72 73 73 73 71 72 76 79 76 70 66 70 76 73 71 69 70 75 70 52 45 48 46 44 43 41 40 37 33 30 25 26 34 39 44 51 50 45 47 49 48 50 54 52 50
33 35 37 43 49 49 49 53 53 50 48 47 46 46 45 44 44 44 44 44 44 45 45 45 46 47 46 46 46 45 45 45 47 49 51 54 57 61 67 70 72 71 70 72 73 74 77 77 70 66 65 71 77 78 75 71 70 75 74 60 47 44 44 43 42 41 40 39 37 33 25 18 18 22 32 42 42 39 46 52 49 48 52 51 51
32 36 39 43 49 50 48 51 52 51 50 49 48 47 46 45 44 44 44 44 45 46 45 44 46 48 48 48 49 50 51 50 49 50 53 56 58 62 67 70 73 72 68 71 74 73 75 74 69 69 71 73 78 80 77 74 72 75 76 65 50 43 43 43 42 41 39 37 35 36 34 27 16 8 9 16 19 20 31 46 50 48 48 48 52
33 41 44 44 47 47 46 48 50 51 50 49 48 48 48 47 45 44 44 44 45 47 46 45 46 48 50 51 52 54 57 57 55 54 56 60 64 66 69 73 77 75 71 72 75 75 75 74 73 76 78 76 76 79 79 76 74 75 78 70 54 45 44 43 43 42 39 35 32 31 32 31 26 17 8 6 6 7 14 32 45 49 50 52 55
44 50 49 46 46 47 46 46 48 50 50 49 49 49 49 49 48 47 47 46 46 48 48 47 48 48 51 53 53 56 60 62 62 62 64 66 67 69 73 77 77 77 77 77 78 79 78 75 76 81 82 79 78 79 79 78 75 75 79 75 61 49 46 45 44 43 40 37 34 31 30 31 31 27 19 10 6 5 8 16 24 31 39 47 48
51 50 48 47 48 49 48 47 47 49 49 48 49 51 50 50 51 51 50 49 48 50 50 50 50 51 52 55 56 60 64 66 67 70 71 71 70 72 78 81 78 77 80 80 80 81 80 76 75 79 80 80 81 81 79 78 77 76 77 77 69 56 48 46 47 46 44 42 40 38 37 37 37 34 29 22 16 10 7 7 9 11 15 23 31
51 48 49 51 49 48 49 51 51 51 50 49 50 53 53 53 54 55 55 53 52 54 54 53 55 56 56 58 60 64 68 70 71 73 74 72 72 75 78 79 77 77 78 76 75 77 76 74 73 74 75 76 79 80 79 77 76 76 77 77 72 60 50 47 47 48 48 47 45 45 45 46 47 43 39 39 39 30 17 9 7 7 8 13 22
53 55 56 53 51 51 53 54 55 56 54 52 52 54 55 56 58 59 59 58 58 59 58 57 58 60 61 61 61 62 64 67 69 72 73 70 71 74 76 75 75 75 74 70 68 69 69 70 69 68 69 71 73 76 78 76 75 76 77 77 73 63 53 48 47 48 49 50 49 48 48 49 50 49 46 49 53 51 41 28 15 8 8 13 19
58 62 62 57 55 57 56 56 60 63 61 58 57 58 58 60 62 62 60 59 59 59 59 59 59 59 59 59 57 56 57 60 63 66 66 64 65 69 71 70 70 70 69 68 66 64 64 65 65 65 66 67 69 72 75 76 76 76 76 76 73 64 56 51 48 47 47 49 49 48 48 48 49 50 51 53 54 56 56 52 41 26 14 11 17
66 67 64 59 56 57 57 59 65 68 67 64 63 61 60 62 63 61 59 58 57 58 59 60 60 59 59 59 58 57 56 59 63 65 63 62 64 67 69 68 67 67 67 66 66 64 62 61 61 63 64 65 66 69 70 73 76 76 75 75 71 63 56 52 50 49 48 48 49 48 49 50 51 53 55 56 57 58 59 61 59 50 37 25 18
73 70 66 61 59 61 62 64 67 69 68 68 68 68 69 69 67 62 59 57 58 59 59 60 60 59 59 59 60 60 59 61 66 68 65 65 66 67 68 67 67 67 66 63 61 61 61 60 59 60 62 63 64 64 65 68 72 73 71 69 67 64 60 56 53 53 52 52 54 54 55 57 58 60 61 60 59 60 59 59 60 60 57 49 34
73 73 72 70 69 70 70 69 70 70 69 70 71 72 73 72 68 65 62 60 61 62 63 64 63 62 62 62 63 65 64 65 68 70 69 69 69 68 67 69 71 71 69 65 62 61 63 63 61 59 60 60 58 57 60 63 66 67 66 65 64 66 66 64 60 58 59 61 63 63 63 65 66 66 66 63 60 60 60 59 59 61 61 59 52
70 71 73 74 74 74 73 72 72 72 72 73 73 72 72 70 69 68 67 65 66 67 67 65 64 63 64 64 64 65 64 64 66 69 69 70 72 71 70 70 73 74 72 71 70 69 68 69 68 65 65 63 61 61 64 65 65 64 62 61 62 63 66 67 66 65 66 69 70 69 68 69 70 68 65 62 60 60 60 59 59 60 59 57 55
67 67 69 70 70 71 72 72 72 72 72 73 73 71 70 68 68 70 69 67 64 62 61 61 63 65 67 64 62 64 64 62 63 65 65 64 66 68 71 73 73 74 74 74 75 75 74 74 74 72 72 72 71 71 71 70 68 67 65 63 62 61 62 63 63 65 68 70 71 72 71 68 66 65 64 61 59 59 58 57 58 60 59 57 55
Wind_Speed
13 16 16 16 16 16 15 15 14 14 14 14 14 14 13 13 12 11 10 10 11 12 13 13 13 13 12 12 12 11 11 10 10 9 8 8 8 8 8 8 9 11 12 12 12 11 11 11 11 11 10 10 11 11 10 8 7 7 7 7 7 8 8 7 6 6 7 8 8 8 8 8 8 7 7 7 6 6 6 6 5 5 5 5 6
13 15 16 17 16 17 15 15 15 15 15 15 14 13 12 13 13 12 11 10 10 11 12 12 12 12 12 12 12 11 10 10 10 8 7 7 7 7 8 8 9 10 11 12 12 11 11 11 11 10 10 10 10 11 10 9 7 6 6 6 6 6 6 5 3 1 2 5 4 5 6 6 6 6 6 6 6 6 5 5 6 6 6 5 5
13 14 16 17 16 17 15 15 16 15 16 15 14 14 13 13 13 12 10 10 10 11 12 12 11 11 11 11 11 10 9 8 8 7 6 7 7 7 8 8 9 9 10 11 12 12 11 11 11 11 11 10 10 10 11 10 8 6 5 4 5 5 5 4 4 5 3 1 3 3 3 3 4 5 5 6 5 5 5 5 5 5 6 5 4
13 14 15 16 16 16 16 16 16 16 16 15 14 15 13 12 12 11 11 10 10 11 11 12 11 10 10 10 9 9 7 6 7 6 6 6 6 6 7 8 8 9 10 10 11 12 11 10 11 12 12 11 11 10 10 10 9 7 5 4 3 3 4 4 5 5 5 3 3 2 1 2 1 4 5 4 4 4 4 4 5 5 5 4 4
14 14 14 15 16 16 16 17 17 16 16 16 16 15 13 12 12 11 11 11 10 11 11 12 12 12 11 10 9 8 7 7 7 6 5 5 5 6 6 7 7 8 9 9 10 11 11 10 10 12 12 11 10 10 10 10 9 8 7 6 4 3 4 4 6 6 6 5 4 4 2 2 2 2 2 3 2 2 3 4 4 5 5 5 5
14 15 15 16 17 17 17 17 17 17 16 16 17 16 14 12 12 12 12 12 11 12 12 12 12 11 11 11 10 9 9 8 7 6 5 5 5 5 5 6 6 7 8 9 10 10 10 11 10 11 11 11 10 9 10 10 10 9 8 7 7 6 4 5 6 7 7 8 6 5 4 3 4 3 2 1 3 2 2 3 4 4 5 6 5
13 14 15 16 17 17 18 18 18 17 16 16 16 16 15 13 13 12 12 13 12 12 13 12 11 12 11 11 11 10 9 8 5 5 5 4 4 4 4 5 5 6 7 8 9 9 9 10 10 10 10 10 10 10 10 10 10 10 9 9 8 6 5 5 6 5 6 8 8 7 7 6 5 4 4 2 1 2 2 1 3 4 5 6 6
13 13 14 15 17 18 18 18 18 17 16 16 16 16 16 14 13 13 13 13 13 13 13 12 11 12 13 11 11 10 9 7 5 5 5 4 4 4 3 4 5 5 6 7 7 8 8 9 9 9 9 9 10 11 11 10 10 10 10 10 9 8 7 6 6 5 5 6 6 6 6 6 6 6 5 5 4 1 2 1 2 3 2 5 7
14 14 14 16 18 18 18 18 18 18 17 16 17 17 16 15 14 14 14 14 13 13 13 13 12 13 13 12 11 10 8 7 6 6 5 5 4 3 3 3 4 4 5 6 7 7 7 7 8 8 8 8 9 10 11 11 11 10 10 10 10 9 9 8 8 7 7 6 6 5 5 5 5 6 6 5 4 3 1 1 3 3 0 2 6
14 14 16 18 19 19 18 17 17 18 17 17 17 17 17 16 14 14 15 14 14 14 14 13 13 13 13 13 12 11 9 7 7 6 5 5 4 4 3 3 3 3 4 5 6 6 6 6 6 7 8 8 9 10 10 11 10 10 10 10 10 10 9 9 9 8 8 7 7 6 6 5 5 6 7 6 5 4 4 3 4 5 3 1 4
14 14 16 18 19 19 18 17 17 17 17 17 18 17 17 16 15 15 16 15 15 15 14 14 14 14 13 13 12 11 9 8 7 7 6 5 5 4 4 3 3 3 3 4 5 5 5 5 6 6 7 8 8 8 9 9 9 9 9 9 10 10 9 9 9 8 8 8 8 8 8 7 6 6 6 7 6 5 5 4 5 6 5 3 3
14 14 15 17 18 19 19 18 18 18 17 18 19 18 17 17 15 15 16 16 16 16 15 15 15 14 14 13 12 11 10 9 8 7 6 6 5 5 4 4 3 3 3 3 4 4 4 5 5 5 6 6 7 7 8 8 8 8 8 8 9 9 9 9 9 8 8 8 9 8 7 7 6 6 6 6 5 5 5 5 6 7 6 4 4
14 14 14 14 16 18 19 18 18 18 18 19 19 18 17 17 16 15 16 17 17 17 17 15 15 15 14 13 12 11 10 9 9 7 7 6 4 4 5 4 4 4 4 3 3 3 3 3 4 4 5 6 6 7 7 8 8 8 8 8 8 9 9 9 9 8 8 8 7 7 6 6 6 5 4 4 4 4 5 6 7 7 6 5 5
14 14 14 13 15 18 19 19 18 18 19 20 20 20 18 17 17 16 16 17 17 17 18 17 16 15 15 14 13 12 11 10 10 8 7 6 4 4 4 4 5 5 5 5 5 4 2 3 3 4 5 6 6 7 7 7 7 8 8 8 8 8 8 8 8 8 7 6 5 5 5 5 4 4 4 4 4 5 5 6 7 7 6 6 6
14 14 14 14 16 19 19 19 19 18 19 20 20 20 19 17 18 18 17 18 18 18 19 18 16 16 15 15 14 12 11 11 10 9 7 6 5 4 4 4 4 5 6 6 6 4 3 4 5 5 6 6 6 7 7 7 7 7 7 7 7 6 6 6 6 6 6 5 5 4 4 4 4 4 4 4 5 5 5 6 6 6 5 5 6
14 14 14 15 18 19 19 19 19 18 19 20 20 21 20 18 18 18 18 18 19 19 19 18 17 16 16 16 14 13 11 11 11 9 8 7 5 5 5 5 5 5 7 7 6 5 5 5 6 6 6 6 6 6 6 6 6 7 6 7 6 6 6 6 6 6 5 5 4 3 3 4 4 3 4 4 4 4 4 5 6 6 5 4 5
15 14 14 15 18 19 19 20 19 19 19 21 21 21 21 19 18 19 18 18 19 20 19 19 18 17 16 16 15 14 13 12 11 10 9 8 7 6 6 5 6 7 8 7 6 6 6 7 6 6 6 6 6 6 6 6 6 6 6 6 6 5 5 5 4 5 4 4 3 3 3 3 3 3 3 3 4 4 3 4 5 5 5 5 4
16 16 15 16 18 19 20 20 20 20 20 21 21 21 20 19 18 19 19 18 19 20 20 19 19 17 17 17 16 14 14 13 12 11 10 9 8 8 7 7 7 9 9 8 8 7 7 8 7 7 7 6 7 6 6 6 6 5 5 5 5 5 5 4 4 4 4 3 3 3 3 3 2 2 2 2 3 3 3 3 4 4 4 5 5
15 15 14 14 17 20 20 20 21 22 21 20 21 21 20 20 19 19 19 18 19 20 20 19 19 18 17 17 16 15 14 14 13 11 10 10 9 9 8 8 8 10 10 9 9 9 9 9 8 8 7 7 7 7 7 6 6 5 5 5 5 5 4 4 4 3 3 3 3 2 2 2 1 1 1 1 1 2 3 3 3 3 3 3 5
14 15 14 14 18 20 21 21 21 22 21 20 21 21 21 20 19 19 19 19 19 20 20 19 19 18 17 17 17 16 15 15 13 12 11 11 10 9 9 9 9 10 11 10 10 11 10 9 9 8 8 8 7 7 7 7 6 6 6 5 5 5 5 4 4 3 3 3 3 2 2 2 1 1 0 0 1 1 2 3 3 3 3 3 5
14 14 14 15 18 20 21 21 21 21 21 20 20 21 21 21 20 20 20 20 21 20 20 19 19 18 18 17 17 17 16 15 14 13 12 11 10 9 9 8 9 10 11 11 11 11 11 10 9 9 8 8 8 8 7 7 6 6 6 6 6 6 5 5 4 4 4 3 3 3 3 2 1 1 1 1 1 2 2 3 3 4 4 5 6
15 15 14 15 17 20 20 20 20 20 21 21 21 21 21 21 21 20 20 21 21 21 20 19 18 18 18 18 18 17 17 16 14 13 13 12 11 10 9 9 9 11 11 11 11 12 11 10 10 9 9 8 8 8 8 7 7 7 7 6 6 6 6 5 5 5 5 4 4 4 4 3 2 2 2 2 2 2 3 4 4 4 5 6 6
15 15 14 15 18 20 20 20 21 20 21 22 21 21 22 22 21 21 21 22 22 21 20 19 19 18 19 18 18 18 17 16 15 14 14 13 12 11 10 10 10 11 11 12 12 12 12 11 11 10 10 9 9 9 8 8 7 8 7 7 7 7 7 6 6 6 6 6 5 5 5 4 4 4 4 4 3 3 4 4 5 5 6 6 6
14 13 13 14 17 19 19 20 21 21 21 22 22 21 22 22 21 22 22 23 22 21 20 20 19 19 19 19 19 18 18 17 16 16 15 14 13 12 11 11 11 11 12 12 12 12 12 12 12 11 11 10 10 10 9 8 8 8 8 8 8 8 8 7 7 7 7 6 6 6 6 6 5 5 5 5 5 4 4 5 5 5 6 6 7
13 13 13 14 16 17 18 19 20 21 22 22 22 21 22 22 22 22 22 23 22 21 21 20 20 20 20 20 20 19 19 18 18 17 16 15 14 13 12 12 11 12 12 13 13 13 13 14 13 12 11 11 11 11 10 10 9 9 9 8 8 8 8 8 8 8 7 7 7 7 7 7 7 6 6 6 6 5 6 6 6 6 6 7 8
14 14 14 14 14 15 18 19 20 21 22 22 23 22 22 23 22 22 22 23 23 22 21 21 21 21 21 21 21 20 20 19 19 18 16 16 15 14 14 13 12 13 13 13 14 14 14 14 14 13 13 12 12 11 11 10 10 10 10 9 9 9 9 9 9 9 9 8 8 8 8 8 8 8 7 7 7 6 7 6 6 7 7 7 8
13 13 13 14 14 15 18 20 20 21 21 22 23 23 23 23 23 23 22 23 23 22 22 21 21 21 22 22 22 22 21 20 19 18 17 16 16 15 15 14 13 13 14 14 14 15 15 15 14 14 14 14 13 12 12 11 11 11 11 10 10 10 10 10 10 10 10 10 9 9 9 9 9 9 8 8 7 7 7 7 7 7 7 8 9
13 14 14 15 15 15 17 20 20 21 21 22 23 24 24 23 23 24 23 23 23 23 22 22 22 22 22 23 23 22 21 20 19 19 18 17 16 16 15 14 14 14 15 15 14 15 16 15 14 15 15 15 14 14 13 12 12 11 11 11 11 11 10 10 10 10 10 11 11 11 10 10 10 9 9 8 7 7 7 7 8 7 7 8 9
14 15 15 16 16 15 16 19 21 21 22 22 22 24 24 23 23 24 24 24 23 22 23 23 22 22 23 22 22 21 21 20 20 19 18 17 17 16 15 15 15 15 15 15 15 15 15 15 15 16 16 16 16 15 15 15 13 12 12 11 11 11 11 11 11 11 11 11 12 12 11 11 11 11 12 12 11 10 9 8 8 8 8 9 9
14 15 15 15 16 16 17 19 21 21 23 23 22 23 24 24 24 24 24 24 23 23 23 23 23 23 23 22 22 21 20 20 20 20 19 18 17 16 16 16 15 15 15 15 15 15 15 16 16 16 17 17 18 19 19 18 16 14 13 11 11 11 11 11 11 11 12 12 13 12 12 13 14 15 17 17 15 14 13 12 10 9 9 9 9
13 14 14 14 15 15 17 19 21 22 23 23 22 23 24 24 24 24 25 25 24 24 24 24 24 23 22 22 22 21 21 21 21 20 19 18 18 17 17 16 16 16 15 15 16 16 16 16 16 17 17 18 20 22 22 21 19 17 15 12 11 11 11 12 12 12 12 12 13 13 12 13 15 17 18 18 17 16 16 14 13 13 13 12 11
12 13 14 15 15 16 16 19 21 22 23 23 22 23 23 24 24 24 24 24 25 24 24 24 24 23 22 22 22 22 22 21 21 21 20 19 19 18 18 17 16 16 16 17 18 17 16 16 16 16 16 18 22 25 24 21 20 20 19 15 12 11 12 12 12 13 13 12 12 12 12 13 14 15 15 16 16 16 16 16 15 15 15 15 14
10 11 13 14 15 16 18 20 21 21 21 22 22 23 23 24 24 24 24 24 25 25 25 25 25 23 23 23 22 22 22 22 22 21 20 20 19 19 18 17 16 16 17 18 18 17 17 17 16 15 16 20 25 27 25 22 21 21 21 19 15 13 12 13 13 13 13 12 12 12 12 13 13 14 15 15 15 15 16 16 16 16 17 18 17
8 10 12 13 13 16 19 20 21 21 21 21 21 22 22 22 23 24 24 24 25 25 25 25 25 24 24 23 23 23 23 22 22 21 20 20 20 19 19 17 16 16 17 18 19 20 18 16 15 16 20 25 27 27 26 24 24 22 22 22 19 15 13 14 14 13 13 13 13 13 13 13 13 14 14 15 14 14 14 14 14 14 15 16 17
7 9 10 11 13 16 18 19 20 20 21 21 21 21 20 20 21 22 23 23 24 24 24 24 24 25 25 24 23 23 23 22 21 21 20 20 20 20 19 18 16 16 17 19 22 22 20 19 20 23 25 26 28 28 26 25 25 23 22 23 21 18 15 15 14 15 14 14 14 14 14 14 14 14 14 14 14 12 12 13 13 13 14 14 14
6 7 9 11 14 16 17 18 18 19 19 20 20 20 19 19 20 21 22 23 23 23 23 24 24 24 24 24 23 23 22 22 22 21 21 21 21 21 20 18 17 16 16 19 23 24 24 25 26 25 25 25 27 29 27 25 25 23 22 24 24 20 17 16 15 15 15 15 15 15 15 15 15 15 15 16 17 14 12 13 13 14 14 14 13
5 6 8 11 13 15 16 16 17 18 19 18 18 18 18 18 18 19 20 21 22 22 23 23 23 23 23 23 23 23 22 23 22 22 22 22 21 21 19 17 17 16 17 20 23 24 23 22 22 23 24 24 26 29 27 25 25 24 23 26 25 20 17 17 16 16 16 15 16 17 16 15 15 15 16 18 19 17 15 14 15 15 14 14 13
5 6 8 10 11 13 14 15 16 18 18 17 17 17 17 17 18 19 19 20 21 22 22 22 22 23 23 23 22 22 22 22 22 22 22 22 21 19 17 17 18 18 18 20 21 19 16 17 20 22 25 25 26 28 28 25 25 25 25 26 24 19 17 17 16 16 16 15 17 19 19 18 16 15 16 18 20 19 16 15 15 15 14 14 13
6 6 8 10 11 12 13 14 16 17 18 18 18 18 18 18 18 19 19 20 21 21 22 22 22 21 21 21 21 21 21 21 21 22 22 21 20 18 17 17 18 18 16 15 15 13 13 17 22 23 26 27 24 24 26 25 25 25 26 26 23 18 17 17 16 15 15 15 15 18 21 21 19 18 19 20 21 20 17 15 15 15 15 14 12
6 7 7 9 11 13 13 14 15 16 17 18 18 18 18 18 18 18 19 20 20 20 20 21 20 20 19 19 19 20 21 21 22 21 21 20 19 17 17 16 15 15 13 11 12 12 14 19 23 23 25 28 24 21 24 26 24 25 27 27 24 19 17 17 15 14 14 14 14 15 18 20 20 19 20 22 22 21 19 16 14 15 15 13 10
5 7 8 9 11 12 13 14 14 15 17 18 18 18 18 17 17 18 19 19 19 18 19 19 18 18 18 19 19 19 20 21 22 20 18 17 16 15 15 14 12 12 12 12 14 16 16 18 19 18 21 26 25 22 23 25 24 24 27 29 26 22 19 17 15 14 14 13 13 14 15 17 18 17 17 19 21 21 20 18 17 16 15 15 13
4 5 6 7 8 10 11 12 12 14 16 17 17 17 17 16 17 18 18 18 17 16 17 17 17 17 17 17 18 18 18 18 18 17 15 15 14 13 13 12 12 11 12 14 16 16 16 16 15 15 17 20 21 21 22 25 24 23 25 29 30 26 22 18 15 15 14 13 13 13 13 15 17 17 16 16 18 19 19 20 20 19 19 19 20
3 4 6 6 6 8 9 9 11 13 15 16 17 17 15 16 17 18 16 15 14 15 15 15 16 17 16 17 17 16 15 15 13 13 14 13 13 12 12 13 13 13 14 15 15 15 15 15 14 13 13 15 16 18 21 24 24 23 24 28 30 29 27 23 19 16 15 14 13 13 13 15 18 18 17 16 16 18 20 21 22 21 21 22 22
1 2 4 5 5 6 7 8 8 10 12 13 14 15 14 15 15 13 12 12 13 13 13 14 14 15 15 15 15 14 14 14 12 13 14 14 13 13 13 13 13 14 14 14 13 13 13 13 13 12 11 11 12 14 18 22 23 22 24 26 28 29 30 28 25 21 17 14 13 12 13 16 18 18 17 16 16 18 19 21 21 20 20 21 22
3 2 2 3 4 4 6 6 7 7 9 10 11 12 13 12 10 9 10 11 11 11 12 12 12 13 13 13 13 13 13 13 12 12 13 13 13 13 13 12 12 12 12 13 13 12 12 11 11 11 10 10 10 12 14 18 21 21 22 24 26 27 28 30 30 27 21 18 17 18 18 19 21 22 22 21 21 22 22 22 21 20 20 21 23
6 5 2 2 3 3 4 5 6 6 7 8 9 10 10 9 8 7 9 10 10 10 11 11 12 13 13 13 13 14 13 12 11 11 12 12 12 12 11 11 10 11 11 11 11 11 11 10 9 9 8 9 9 10 11 13 17 19 21 23 24 25 26 27 30 30 28 25 25 25 25 25 26 26 27 26 25 24 23 22 21 21 22 24 24
10 7 3 3 4 4 4 4 4 4 4 5 6 7 7 7 7 7 7 8 10 11 12 12 13 13 13 12 13 12 11 10 10 10 10 10 10 10 10 10 10 10 10 10 9 9 9 8 8 8 8 8 8 9 10 11 13 15 18 20 22 24 25 27 29 30 30 29 29 29 29 29 29 29 29 28 26 24 23 23 23 23 24 26 27
13 11 7 5 6 6 6 5 5 4 3 3 2 2 2 3 4 5 5 7 8 10 11 12 12 12 11 11 11 11 10 8 7 8 8 8 8 8 9 9 9 8 7 8 8 8 8 7 7 7 6 7 8 9 10 11 12 12 13 14 17 20 23 25 27 28 28 27 27 26 25 25 25 25 24 24 24 25 25 26 26 26 27 27 27
15 15 13 12 11 11 10 10 9 7 6 6 5 4 3 1 2 4 5 6 7 8 9 9 10 10 9 8 8 9 9 8 7 7 7 6 7 7 6 5 5 6 7 8 7 7 6 6 7 7 7 8 7 6 8 9 10 10 11 12 13 14 16 17 19 21 20 18 19 22 22 21 20 19 17 16 17 18 21 23 23 24 26 26 24
15 15 16 16 15 14 13 12 11 10 9 9 8 7 6 4 2 1 4 6 7 7 6 7 7 7 7 7 7 8 8 7 7 7 7 6 6 7 6 5 5 5 7 7 8 7 6 5 5 5 6 7 6 4 5 7 7 7 8 10 12 13 14 14 14 15 14 14 15 18 19 19 17 15 15 15 15 15 17 19 20 20 22 23 22
15 15 17 17 17 17 16 15 14 13 12 12 12 11 9 8 6 3 2 4 6 7 7 6 6 6 6 5 5 5 5 5 5 5 5 4 5 5 5 5 5 5 5 6 8 9 9 9 9 8 8 8 9 9 9 10 10 11 11 10 11 12 14 16 16 15 15 15 14 14 14 14 13 14 16 16 14 14 17 19 19 19 18 20 21
Wind_Direction
165 167 165 164 161 158 159 157 157 158 159 160 160 159 156 153 151 147 144 144 146 150 150 147 142 138 135 132 127 122 115 109 101 90 83 76 68 61 55 52 50 47 45 45 47 49 52 52 52 55 57 61 60 57 60 69 78 85 91 97 101 100 94 92 94 105 112 103 96 95 87 80 80 79 78 74 71 69 63 59 52 47 45 41 41
166 168 166 167 164 161 161 161 162 164 165 167 166 163 160 158 154 150 149 149 150 153 152 150 146 142 140 136 132 126 118 112 106 96 88 82 73 64 57 52 51 48 46 47 49 53 56 57 57 57 59 63 64 62 61 67 76 86 97 103 105 103 93 83 63 355 158 130 123 125 118 104 93 84 77 76 72 68 66 61 53 45 41 36 35
170 170 169 170 168 165 166 167 170 170 170 173 171 166 164 164 158 153 154 154 153 155 155 154 149 145 143 138 135 129 117 108 105 101 96 88 77 67 58 53 52 50 49 49 51 56 59 61 62 62 63 64 65 64 61 62 68 76 90 102 112 117 103 71 27 347 339 165 204 195 152 147 135 115 89 77 73 70 66 57 51 42 37 34 30
174 174 173 173 171 170 170 172 175 175 176 177 174 170 169 169 164 160 161 158 156 159 158 156 153 148 144 141 139 132 123 118 115 109 102 93 82 71 62 57 57 55 54 54 55 59 62 65 66 68 68 65 64 64 61 60 62 65 72 83 102 125 111 63 28 10 358 334 275 279 249 241 173 133 119 97 85 79 70 55 48 41 35 33 28
178 178 177 176 175 176 176 176 178 180 182 181 178 175 173 172 170 167 167 164 161 164 162 158 157 154 150 147 146 141 139 139 130 120 112 102 88 74 66 62 60 60 58 57 58 60 64 68 70 72 72 70 67 66 62 61 62 63 66 70 71 75 95 80 49 40 30 14 351 339 288 262 30 76 133 132 119 72 65 64 50 39 33 28 26
185 183 180 178 178 178 180 180 182 185 185 184 182 179 177 175 173 170 170 170 168 169 168 165 165 163 159 157 156 155 152 145 134 126 118 105 94 83 76 69 65 66 63 59 61 63 65 68 71 72 74 74 72 70 65 60 60 61 59 62 66 62 76 90 71 61 56 50 46 35 24 12 10 343 302 148 143 127 61 57 49 41 32 25 22
190 187 182 180 180 180 183 184 186 187 186 186 184 183 183 180 178 176 175 175 174 174 175 174 172 171 169 164 161 160 154 146 137 130 121 111 108 99 88 78 72 70 67 64 62 64 65 65 69 71 74 76 75 73 69 63 62 61 59 58 61 58 62 79 77 73 69 58 57 58 53 42 26 2 338 333 194 155 117 54 40 37 28 26 19
191 189 185 184 183 183 185 186 187 189 186 186 186 185 186 186 184 183 180 179 179 178 180 181 179 177 176 171 168 167 157 151 151 144 139 133 126 118 104 91 80 72 72 71 64 64 68 66 69 73 75 77 77 76 73 71 71 68 67 64 62 61 60 67 69 65 69 62 53 54 56 54 47 37 16 350 324 299 131 120 34 24 22 27 17
192 190 187 188 187 187 187 186 187 189 187 187 187 185 187 188 187 186 183 183 184 183 184 186 184 181 181 177 173 169 160 157 158 155 155 152 147 142 127 110 91 82 81 78 69 65 71 71 72 76 79 81 81 82 81 79 78 74 72 71 69 68 62 64 67 60 58 57 49 45 42 44 50 42 25 14 354 331 5 59 6 353 328 31 16
193 191 189 190 189 189 189 187 186 188 188 188 188 187 187 187 187 187 186 187 188 187 188 188 187 185 184 181 176 172 168 168 165 163 168 166 163 162 151 137 113 100 91 83 74 67 73 78 78 80 85 88 88 90 89 86 85 82 79 78 78 76 71 69 69 65 60 56 51 47 41 36 38 38 24 17 14 350 343 5 2 351 334 354 13
192 191 189 189 190 190 190 189 187 188 188 189 190 190 187 188 189 188 188 190 190 190 191 190 190 189 187 185 182 179 178 178 177 175 180 180 177 176 171 163 149 134 111 94 84 75 75 84 86 86 89 93 95 95 95 94 92 89 85 83 82 81 80 77 74 72 69 64 59 53 50 46 37 37 29 15 15 7 347 343 1 354 331 331 12
192 191 189 187 188 189 190 190 188 187 188 189 192 193 190 190 191 188 189 192 191 192 193 192 192 193 192 190 189 187 188 187 187 187 186 186 184 183 181 177 171 164 146 121 103 87 80 88 94 93 94 98 100 100 100 100 98 95 89 84 82 80 79 79 75 72 69 66 62 57 56 56 47 41 35 23 16 7 350 340 352 351 333 341 11
192 191 189 186 186 188 189 190 189 189 189 190 192 194 193 194 193 190 190 191 191 192 194 194 195 197 196 195 194 192 195 197 193 191 191 189 191 193 194 191 187 183 175 157 133 109 91 100 112 110 109 110 109 108 105 103 100 95 90 84 80 78 78 80 77 72 69 68 66 63 62 61 57 49 38 31 19 3 358 348 346 346 336 336 353
192 191 190 187 184 187 189 189 191 192 190 190 193 195 196 196 195 193 191 190 190 191 194 196 196 198 197 197 197 196 198 200 196 193 191 193 199 206 209 206 200 195 184 169 152 140 125 134 146 138 130 125 120 118 113 108 104 98 93 90 85 83 84 86 85 80 76 75 77 79 77 74 71 61 46 36 28 18 14 359 346 343 335 332 345
192 191 192 187 184 187 189 190 192 193 189 189 192 194 197 198 195 194 192 189 190 192 194 196 197 198 198 198 200 200 201 202 201 202 201 203 211 217 222 219 208 198 186 173 161 158 161 166 165 155 145 139 131 128 121 115 114 109 106 104 99 98 99 98 97 95 91 89 92 95 91 84 78 66 55 43 35 30 24 8 355 349 343 341 349
192 191 191 187 185 187 189 190 193 192 189 189 191 192 196 198 195 195 195 192 192 193 194 196 198 197 198 199 202 204 206 205 206 210 214 220 230 233 232 226 211 195 185 179 173 173 175 175 174 165 157 151 143 137 131 127 126 123 120 118 115 112 111 111 110 107 105 103 98 96 92 84 76 66 59 50 40 34 29 19 11 3 349 341 345
191 191 190 187 184 186 188 190 192 191 190 190 192 192 193 195 194 195 197 195 193 194 194 196 198 197 198 200 203 207 211 211 211 214 220 228 236 239 239 229 212 196 188 190 191 188 182 177 177 172 162 158 152 146 142 139 137 135 133 130 127 127 123 121 124 122 119 115 106 99 93 83 77 68 61 57 44 35 33 26 21 14 355 340 337
190 190 190 186 184 185 189 191 192 192 193 192 191 191 191 192 194 195 196 196 193 193 194 195 197 198 199 202 206 210 213 214 214 217 222 227 232 238 239 230 212 199 197 205 205 196 188 182 179 176 167 162 159 155 153 151 145 144 144 140 139 141 139 137 138 137 134 129 120 110 102 89 83 80 68 62 46 32 26 19 18 13 357 347 335
190 191 188 185 185 186 188 191 193 193 194 193 190 190 190 191 195 196 196 195 193 191 193 195 198 200 201 204 207 210 211 212 214 217 220 226 233 237 236 227 212 202 206 215 207 196 193 188 183 181 173 167 164 162 162 161 156 154 155 154 157 158 157 158 158 155 155 154 142 131 124 109 106 116 83 51 37 22 10 2 4 1 349 341 328
189 189 187 184 185 186 187 191 193 193 194 192 189 190 190 190 193 195 194 194 193 192 193 195 199 201 203 205 206 208 209 211 213 216 220 228 235 235 231 223 214 207 212 219 209 197 196 192 186 183 178 173 171 169 168 168 167 165 167 171 174 177 177 174 175 174 177 178 172 166 155 140 155 178 164 336 324 345 350 348 348 347 338 323 315
187 188 187 183 182 185 187 190 193 192 192 192 190 190 191 190 192 193 193 194 195 195 196 197 200 202 203 204 204 205 208 210 213 217 223 231 235 233 227 219 215 214 216 218 211 202 199 195 191 187 183 180 177 176 175 174 176 174 175 180 184 189 192 188 190 193 192 195 197 197 187 176 183 217 247 261 284 309 316 324 332 335 334 327 316
185 186 186 182 180 184 185 188 192 191 190 191 190 191 192 191 191 191 192 195 197 198 199 199 200 203 203 203 203 203 206 210 214 218 224 230 231 230 227 220 215 217 220 216 207 204 202 198 196 193 189 188 185 182 181 179 182 183 181 186 192 196 201 199 201 205 204 204 209 214 209 203 209 225 247 263 285 305 309 317 326 329 327 327 319
185 185 185 182 179 181 183 186 188 188 189 190 190 191 193 192 191 191 193 196 198 199 201 200 201 202 202 202 201 203 206 210 216 221 225 228 229 229 229 224 217 218 221 215 206 207 208 203 202 200 196 194 190 188 188 186 187 190 190 193 196 201 207 208 211 215 213 210 216 222 218 215 223 230 241 257 267 280 299 308 315 321 318 316 316
183 182 180 179 176 178 182 183 184 187 187 189 190 191 193 193 193 193 194 195 197 199 201 201 201 201 201 202 203 204 208 213 218 222 225 228 230 230 228 226 220 216 219 219 213 210 211 209 208 205 202 200 196 193 194 192 192 195 199 202 203 206 211 214 218 220 219 219 221 227 227 223 228 235 241 249 253 260 280 293 301 312 311 307 310
179 177 175 176 175 176 180 182 184 186 186 187 190 191 192 193 194 194 193 194 197 199 201 201 201 201 201 204 206 208 212 216 219 223 226 227 229 230 229 227 223 219 218 220 218 213 212 214 214 210 207 206 203 200 198 197 197 199 202 207 209 212 215 220 224 224 224 226 226 230 232 227 229 237 241 247 250 256 271 282 289 301 309 308 305
178 177 175 175 176 179 181 182 185 186 186 187 189 191 193 194 194 195 194 194 196 198 201 202 202 202 203 206 209 212 215 218 220 224 227 228 230 231 230 228 227 223 220 221 221 216 215 217 217 213 211 209 207 206 205 203 202 201 203 208 211 215 219 222 225 227 228 229 230 232 233 230 231 235 238 243 249 255 266 275 279 288 299 304 302
178 178 177 178 180 182 182 183 185 186 187 188 189 192 194 194 194 196 195 195 196 198 201 202 202 204 205 208 211 214 217 220 223 225 227 229 231 232 232 233 231 223 221 224 223 219 220 222 218 215 213 211 208 207 209 209 207 205 204 206 211 215 220 223 226 229 231 231 233 234 234 232 232 235 238 241 248 254 260 267 272 279 289 296 299
181 181 182 182 183 184 183 183 185 187 187 188 191 192 194 195 195 195 195 195 196 197 200 202 203 205 208 210 213 216 220 223 225 226 228 230 232 233 234 234 232 225 224 226 224 221 223 224 220 216 215 212 209 207 209 210 210 211 210 209 211 215 220 225 227 230 232 233 235 236 235 235 234 233 233 234 241 251 259 267 270 271 280 290 296
186 186 186 186 186 185 185 184 185 186 187 190 193 192 193 195 195 194 196 197 197 198 200 202 204 207 210 212 214 217 221 223 225 227 229 231 233 234 233 232 231 228 227 229 227 222 221 222 221 217 213 213 213 211 211 211 209 210 213 215 215 216 220 226 230 232 234 234 236 237 237 235 232 229 231 236 241 246 253 262 269 273 279 287 293
192 191 189 189 189 186 185 184 185 187 189 191 193 192 192 194 194 194 196 197 198 200 202 204 206 209 211 213 215 218 221 223 225 228 230 232 232 232 232 232 231 230 230 230 227 222 221 222 222 218 213 214 218 221 223 224 219 211 212 217 219 219 221 227 232 234 235 236 237 239 239 237 236 237 242 250 253 253 256 258 261 267 274 282 291
196 193 192 191 190 188 185 186 188 189 191 192 193 193 193 194 194 195 196 197 198 201 204 206 209 210 211 213 216 219 221 224 226 229 231 232 232 232 231 231 232 232 230 230 229 227 224 223 221 219 215 215 223 231 235 237 232 221 215 216 221 224 224 227 232 235 237 239 238 239 241 240 240 242 247 255 259 259 261 261 263 267 270 273 279
200 194 192 191 190 189 188 189 192 192 192 193 193 194 194 195 195 196 197 198 199 202 205 207 210 212 212 214 216 219 222 225 227 230 232 232 233 233 231 230 231 230 231 235 238 233 225 223 223 220 216 222 234 242 243 240 236 229 223 219 221 227 227 227 232 235 238 242 241 240 241 240 240 239 241 249 257 261 265 267 269 273 273 271 270
203 197 193 191 191 190 189 191 193 193 196 197 195 195 196 196 195 196 197 197 199 203 206 209 211 213 213 215 218 220 224 226 228 230 232 233 234 233 231 232 231 230 232 238 240 236 229 224 219 217 225 237 246 250 247 240 235 230 226 223 223 227 230 229 232 236 239 241 242 242 242 241 242 240 239 243 248 255 263 268 270 271 271 271 271
204 202 196 191 189 190 191 193 194 192 196 203 202 199 199 198 196 197 197 198 200 203 206 210 212 214 216 218 219 222 225 227 229 231 233 234 234 234 234 234 233 229 229 233 239 240 234 223 217 231 248 250 248 251 249 241 235 230 225 224 223 227 233 233 232 235 238 239 239 241 242 244 244 242 239 240 243 247 252 257 259 259 260 263 267
201 204 200 190 187 189 190 192 193 192 194 201 203 200 198 198 198 199 199 199 202 204 207 211 213 215 217 218 220 223 226 228 231 232 233 235 235 236 236 235 233 230 227 235 245 245 237 234 239 248 252 247 245 251 251 241 234 230 225 225 225 225 231 235 234 234 235 237 238 239 242 246 246 245 243 240 240 245 251 253 253 252 252 254 257
197 201 200 192 189 190 190 188 189 191 193 198 200 197 195 197 198 200 200 201 204 207 210 212 214 216 218 219 221 224 226 229 231 232 234 236 236 237 237 235 234 232 228 236 248 247 243 245 247 245 244 242 245 252 251 241 235 230 225 225 225 225 231 234 234 235 234 235 237 237 240 244 246 247 248 245 244 248 256 259 258 256 255 255 255
182 191 194 194 192 191 189 186 185 188 192 194 195 193 193 196 199 201 203 204 206 209 212 214 216 218 219 221 222 224 226 229 231 233 235 237 238 239 237 232 232 231 229 237 247 249 246 243 238 240 248 249 248 252 252 242 234 229 223 223 223 224 230 234 234 235 234 234 236 237 238 242 245 248 249 249 251 252 253 256 257 258 257 256 257
162 172 180 186 190 190 188 185 185 188 189 189 189 188 190 195 199 201 203 205 208 211 213 214 217 219 221 222 223 225 228 229 231 234 236 237 238 238 234 232 233 234 235 241 246 244 237 234 238 248 256 254 249 252 252 243 235 230 224 220 220 222 227 233 235 235 234 235 239 242 244 243 242 245 247 248 252 253 250 250 255 258 257 257 257
149 162 170 174 180 184 184 185 188 189 188 187 187 187 191 196 199 200 203 206 209 211 212 215 219 220 221 223 224 226 228 230 232 234 235 237 239 237 234 234 236 237 240 244 242 232 228 243 256 262 259 251 244 247 250 244 236 233 227 219 217 221 226 230 234 234 234 235 238 245 252 252 247 244 244 247 251 252 248 247 252 254 254 257 258
149 157 163 165 170 176 180 186 191 191 187 187 187 188 193 198 199 201 204 207 208 210 212 216 218 220 221 220 221 222 224 228 232 234 236 237 237 236 234 233 234 238 241 240 237 235 239 251 261 263 256 249 241 239 247 247 237 233 230 221 216 220 226 229 232 234 235 238 239 240 249 257 258 252 247 248 252 253 250 246 248 251 254 259 255
142 152 162 167 170 177 182 186 188 187 185 186 187 190 196 198 200 204 207 208 208 209 212 215 216 218 218 217 218 219 220 226 231 234 236 235 233 236 237 232 231 236 236 234 239 244 247 251 254 251 247 248 244 237 243 249 242 235 231 223 217 220 225 228 232 234 236 242 246 243 245 253 259 259 254 251 251 254 252 247 245 246 249 255 254
121 147 172 177 171 178 185 184 181 182 183 185 188 193 197 198 202 209 210 208 208 208 210 214 215 216 217 217 219 220 221 226 231 231 231 233 236 240 235 226 228 232 232 237 241 243 246 248 247 241 240 245 246 239 240 247 247 241 233 226 222 222 223 227 233 238 240 243 247 249 248 250 255 260 261 256 252 253 252 249 248 247 247 250 255
141 167 185 186 175 178 185 182 178 181 184 186 190 194 197 200 206 211 210 206 206 207 208 211 214 217 220 221 221 221 221 225 227 226 230 235 236 234 224 221 230 234 234 238 238 235 240 244 242 238 235 234 236 240 243 247 248 244 237 231 228 227 227 228 232 238 244 248 250 253 253 252 254 260 265 264 258 254 252 252 254 253 253 255 259
126 174 185 189 185 180 180 178 177 180 184 188 192 195 200 205 210 212 209 204 203 203 207 212 214 216 220 222 223 224 224 226 227 228 234 236 233 229 226 226 231 232 231 237 236 233 237 239 235 234 232 223 221 232 245 252 250 244 238 234 232 231 231 232 235 240 244 249 252 253 252 253 256 262 268 269 263 257 254 255 258 258 257 257 258
63 70 146 188 191 174 170 170 167 174 185 191 195 201 206 209 208 204 203 203 203 203 207 211 214 220 226 229 232 231 226 225 225 225 230 235 232 229 229 227 227 229 233 239 240 236 234 233 232 231 228 223 219 220 235 252 254 245 239 237 235 234 235 236 239 241 244 247 250 250 250 253 258 263 268 271 268 262 258 257 258 259 258 256 255
33 37 70 157 172 164 166 163 155 164 180 191 200 209 212 210 203 199 202 206 210 213 215 217 222 229 236 239 240 239 234 229 228 228 233 239 236 231 231 231 229 231 234 237 239 236 232 232 234 234 228 223 220 214 219 239 249 247 241 238 237 237 238 239 242 245 247 249 252 255 257 259 261 265 268 270 268 266 264 261 258 255 253 252 253
24 22 47 129 144 146 157 153 142 147 166 181 196 207 211 207 202 201 203 207 214 219 220 221 222 226 229 230 231 234 233 229 228 229 231 232 228 225 226 226 225 226 228 231 234 234 233 232 230 230 228 220 215 215 212 217 230 238 239 238 239 238 238 239 241 245 249 252 256 260 262 264 265 266 268 268 265 262 259 257 257 255 252 251 252
28 26 41 78 96 98 104 103 91 90 104 120 143 172 191 201 203 204 206 209 214 218 219 217 215 213 212 214 216 217 217 217 216 216 217 215 212 214 217 218 217 219 220 225 231 232 233 236 233 228 227 221 218 222 217 208 209 217 221 225 231 235 237 239 242 246 250 254 258 260 262 265 265 264 263 262 260 258 254 253 256 258 256 255 254
39 38 44 56 65 70 74 74 70 68 72 75 68 55 39 334 249 232 224 217 212 211 211 206 201 197 196 196 195 196 199 198 192 192 196 197 195 200 206 209 213 218 216 216 224 231 230 236 240 236 233 235 236 228 217 213 214 214 209 206 210 219 227 235 244 248 245 244 248 251 252 254 253 250 246 244 244 246 248 252 255 255 254 253 251
50 50 50 50 54 57 59 61 60 61 64 65 60 54 47 34 7 258 224 214 205 197 192 185 177 168 166 170 171 173 177 179 176 174 175 177 184 191 193 187 194 217 223 217 220 227 228 232 246 251 246 251 261 255 234 237 246 246 234 220 214 216 218 225 237 242 234 227 234 242 244 242 238 233 234 235 232 230 236 247 253 254 254 252 247
55 55 54 52 51 51 52 52 51 52 55 57 55 51 48 45 45 59 129 172 171 161 149 140 129 114 109 122 135 141 149 155 154 153 154 156 165 176 184 194 213 235 243 237 236 239 240 240 246 254 261 270 276 274 269 269 271 271 268 257 243 235 231 232 238 240 235 233 235 238 241 243 240 235 236 236 234 233 239 248 253 255 253 250 247